User: anonymous   Login
Location: Slidell
(30.2789°N, 89.7378°W)
Time: 09:48:17
(UTC-05:00)
Language:

Cosmos 2360 Rocket - Orbit

View from above orbital plane
View from above orbital plane
View from above satellite
View from above satellite

Ground track
Ground track

The orbit data is extracted from the following two-line orbital elements,

1 25407U 98045B   17115.65465082 -.00000138 +00000-0 -46122-4 0  9998
2 25407 071.0096 151.8290 0009987 282.5692 077.4314 14.15757692968743
Epoch (UTC): 25 April 2017 15:42:41
Eccentricity: 0.0009987
inclination: 71.0096°
perigee height: 832 km
apogee height: 847 km
right ascension of ascending node: 151.8290°
argument of perigee: 282.5692°
revolutions per day: 14.15757692
mean anomaly at epoch: 77.4314°
orbit number at epoch: 96874

The dashed part of the orbit path shows where the satellite is in the earth's shadow,  

DLR